Location: Vigo di Fassa
(46.4167°N, 11.6667°E)
Time: 14:10:26
(UTC+00:00)

MOS 1 - Pass Details

Date: 03 March 2021
Orbit: 878 x 892 km, 99.1° (Epoch: 14 April)

Event Time Altitude Azimuth Distance (km) Brightness Sun altitude
Exits shadow 19:26:04 31° 177° (S) 1,502 5.3 -25.3°
Maximum altitude 19:28:53 74° 256° (WSW) 927 4.4 -25.7°
Drops below altitude 10° 19:34:35 10° 342° (NNW) 2,558 7.1 -26.7°
Sets 19:36:59 0° 344° (NNW) 3,500 7.9 -27.0°
